H1 CPF 2 NER 2021 1 14 9 014 01 glonass129 H2 1106402 9129 37868 2021 1 14 0 0 0 2021 1 17 23 45 0 900 1 1 0 0 0 1 H9 10 0 59228 0.00000 0 9836231.269 14678149.342 18450168.070 10 0 59228 900.00000 0 7708579.762 13617798.807 20191549.753 10 0 59228 1800.00000 0 5331445.525 12648438.360 21542492.710 10 0 59228 2700.00000 0 2755467.773 11814098.035 22476816.103 10 0 59228 3600.00000 0 39469.182 11149563.947 22976350.984 10 0 59228 4500.00000 0 -2751725.214 10678924.904 23031293.636 10 0 59228 5400.00000 0 -5549720.695 10414581.313 22640402.993 10 0 59228 6300.00000 0 -8285138.988 10356758.060 21811037.908 10 0 59228 7200.00000 0 -10890252.886 10493542.373 20559032.553 10 0 59228 8100.00000 0 -13301562.133 10801446.272 18908410.940 10 0 59228 9000.00000 0 -15462205.058 11246471.550 16890944.208 10 0 59228 9900.00000 0 -17324106.386 11785634.325 14545557.237 10 0 59228 10800.00000 0 -18849771.944 12368886.734 11917594.035 10 0 59228 11700.00000 0 -20013654.874 12941356.249 9057954.184 10 0 59228 12600.00000 0 -20803035.202 13445809.052 6022115.693 10 0 59228 13500.00000 0 -21218374.694 13825233.677 2869062.187 10 0 59228 14400.00000 0 -21273130.808 14025435.166 -339865.133 10 0 59228 15300.00000 0 -20993036.417 13997528.690 -3542168.068 10 0 59228 16200.00000 0 -20414874.922 13700225.212 -6675420.361 10 0 59228 17100.00000 0 -19584802.191 13101809.983 -9678499.725 10 0 59228 18000.00000 0 -18556286.501 12181727.600 -12492797.143 10 0 59228 18900.00000 0 -17387754.423 10931703.913 -15063378.057 10 0 59228 19800.00000 0 -16140043.420 9356354.992 -17340070.982 10 0 59228 20700.00000 0 -14873770.410 7473255.524 -19278460.601 10 0 59228 21600.00000 0 -13646729.060 5312462.287 -20840764.738 10 0 59228 22500.00000 0 -12511427.188 2915511.839 -21996577.241 10 0 59228 23400.00000 0 -11512869.295 333934.235 -22723461.859 10 0 59228 24300.00000 0 -10686678.341 -2372654.822 -23007385.620 10 0 59228 25200.00000 0 -10057635.937 -5138803.198 -22842983.753 10 0 59228 26100.00000 0 -9638701.833 -7895718.242 -22233651.751 10 0 59228 27000.00000 0 -9430552.819 -10573904.762 -21191463.851 10 0 59228 27900.00000 0 -9421658.798 -13105834.738 -19736920.686 10 0 59228 28800.00000 0 -9588890.850 -15428537.427 -17898532.260 10 0 59228 29700.00000 0 -9898633.559 -17486002.423 -15712245.602 10 0 59228 30600.00000 0 -10308352.602 -19231296.471 -13220729.349 10 0 59228 31500.00000 0 -10768549.650 -20628307.131 -10472530.283 10 0 59228 32400.00000 0 -11225020.526 -21653042.463 -7521119.099 10 0 59228 33300.00000 0 -11621320.200 -22294434.673 -4423844.639 10 0 59228 34200.00000 0 -11901329.953 -22554616.498 -1240817.507 10 0 59228 35100.00000 0 -12011818.178 -22448661.254 1966255.022 10 0 59228 36000.00000 0 -11904887.005 -22003799.706 5135260.204 10 0 59228 36900.00000 0 -11540202.187 -21258148.489 8204874.274 10 0 59228 37800.00000 0 -10886913.019 -20259004.871 11115737.628 10 0 59228 38700.00000 0 -9925182.287 -19060780.152 13811588.934 10 0 59228 39600.00000 0 -8647262.555 -17722658.542 16240337.347 10 0 59228 40500.00000 0 -7058073.949 -16306079.183 18355053.533 10 0 59228 41400.00000 0 -5175258.990 -14872145.747 20114861.879 10 0 59228 42300.00000 0 -3028711.527 -13479070.663 21485718.114 10 0 59228 43200.00000 0 -659598.017 -12179759.269 22441058.707 10 0 59228 44100.00000 0 1881090.001 -11019633.212 22962310.609 10 0 59228 45000.00000 0 4534394.321 -10034782.678 23039252.126 10 0 59228 45900.00000 0 7235584.893 -9250523.586 22670218.146 10 0 59228 46800.00000 0 9916602.689 -8680419.480 21862145.363 10 0 59228 47700.00000 0 12508651.797 -8325809.080 20630455.685 10 0 59228 48600.00000 0 14944835.438 -8175859.810 18998778.633 10 0 59228 49500.00000 0 17162728.164 -8208146.128 16998516.273 10 0 59228 50400.00000 0 19106778.281 -8389729.745 14668257.085 10 0 59228 51300.00000 0 20730440.793 -8678697.815 12053048.054 10 0 59228 52200.00000 0 21997951.594 -9026095.631 9203537.146 10 0 59228 53100.00000 0 22885667.700 -9378173.384 6175001.382 10 0 59228 54000.00000 0 23382916.155 -9678852.468 3026278.282 10 0 59228 54900.00000 0 23492314.402 -9872306.856 -181378.968 10 0 59228 55800.00000 0 23229547.202 -9905549.312 -3385500.054 10 0 59228 56700.00000 0 22622608.319 -9730911.311 -6523625.661 10 0 59228 57600.00000 0 21710538.175 -9308309.404 -9534539.952 10 0 59228 58500.00000 0 20541710.579 -8607199.553 -12359481.629 10 0 59228 59400.00000 0 19171741.240 -7608134.047 -14943308.107 10 0 59228 60300.00000 0 17661107.268 -6303852.563 -17235588.324 10 0 59228 61200.00000 0 16072579.460 -4699859.111 -19191601.107 10 0 59228 62100.00000 0 14468577.162 -2814458.702 -20773218.365 10 0 59228 63000.00000 0 12908558.670 -678250.942 -21949655.012 10 0 59228 63900.00000 0 11446558.343 1666898.757 -22698070.490 10 0 59228 64800.00000 0 10128974.835 4169367.413 -23004010.290 10 0 59228 65700.00000 0 8992703.697 6769698.721 -22861679.289 10 0 59228 66600.00000 0 8063692.425 9402862.277 -22274042.344 10 0 59228 67500.00000 0 7355977.573 12000752.841 -21252751.263 10 0 59228 68400.00000 0 6871242.757 14494824.819 -19817900.701 10 0 59228 69300.00000 0 6598914.007 16818751.727 -17997619.013 10 0 59228 70200.00000 0 6516786.097 18910999.797 -15827503.245 10 0 59228 71100.00000 0 6592150.964 20717208.953 -13349910.383 10 0 59228 72000.00000 0 6783378.374 22192282.652 -10613119.772 10 0 59228 72900.00000 0 7041880.080 23302100.853 -7670383.865 10 0 59228 73800.00000 0 7314372.948 24024786.341 -4578886.469 10 0 59228 74700.00000 0 7545344.381 24351473.512 -1398629.321 10 0 59228 75600.00000 0 7679615.303 24286549.669 1808731.111 10 0 59228 76500.00000 0 7664892.395 23847360.912 4981074.071 10 0 59228 77400.00000 0 7454202.190 23063396.781 8057009.292 10 0 59228 78300.00000 0 7008104.970 21974989.426 10977053.624 10 0 59228 79200.00000 0 6296595.974 20631582.678 13684767.633 10 0 59228 80100.00000 0 5300614.594 19089643.972 16127831.308 10 0 59228 81000.00000 0 4013098.680 17410306.199 18259039.486 10 0 59228 81900.00000 0 2439539.772 15656837.279 20037199.316 10 0 59228 82800.00000 0 598015.596 13892041.899 21427913.832 10 0 59228 83700.00000 0 -1481302.561 12175702.262 22404237.953 10 0 59228 84600.00000 0 -3757148.759 10562162.837 22947195.318 10 0 59228 85500.00000 0 -6178628.066 9098158.191 23046146.648 10 0 59229 0.00000 0 -8687090.591 7820972.992 22699002.773 10 0 59229 900.00000 0 -11218338.992 6757010.077 21912277.708 10 0 59229 1800.00000 0 -13705079.934 5920825.191 20700980.155 10 0 59229 2700.00000 0 -16079520.672 5314670.048 19088343.675 10 0 59229 3600.00000 0 -18276004.657 4928561.797 17105399.331 10 0 59229 4500.00000 0 -20233577.690 4740878.116 14790396.825 10 0 59229 5400.00000 0 -21898378.515 4719453.580 12188083.375 10 0 59229 6300.00000 0 -23225753.918 4823132.522 9348852.315 10 0 59229 7200.00000 0 -24182009.055 5003713.953 6327776.459 10 0 59229 8100.00000 0 -24745718.372 5208207.015 3183543.915 10 0 59229 9000.00000 0 -24908540.455 5381301.635 -22683.472 10 0 59229 9900.00000 0 -24675500.748 5467949.185 -3228466.549 10 0 59229 10800.00000 0 -24064728.654 5415942.493 -6371316.124 10 0 59229 11700.00000 0 -23106658.860 5178383.984 -9389925.874 10 0 59229 12600.00000 0 -21842729.829 4715935.009 -12225385.091 10 0 59229 13500.00000 0 -20323634.244 3998748.509 -14822345.816 10 0 59229 14400.00000 0 -18607195.646 3008000.598 -17130119.749 10 0 59229 15300.00000 0 -16755961.739 1736953.941 -19103681.819 10 0 59229 16200.00000 0 -14834617.056 191506.033 -20704559.529 10 0 59229 17100.00000 0 -12907325.204 -1609802.281 -21901589.847 10 0 59229 18000.00000 0 -11035113.806 -3636319.329 -22671528.375 10 0 59229 18900.00000 0 -9273412.901 -5846334.191 -22999498.997 10 0 59229 19800.00000 0 -7669850.549 -8188603.256 -22879275.660 10 0 59229 20700.00000 0 -6262397.983 -10604287.310 -22313391.548 10 0 59229 21600.00000 0 -5077941.208 -13029217.562 -21313074.584 10 0 59229 22500.00000 0 -4131337.421 -15396395.294 -19898011.643 10 0 59229 23400.00000 0 -3424993.789 -17638620.116 -18095947.340 10 0 59229 24300.00000 0 -2948983.791 -19691136.875 -15942126.420 10 0 59229 25200.00000 0 -2681693.473 -21494190.784 -13478591.754 10 0 59229 26100.00000 0 -2590967.785 -22995384.546 -10753352.699 10 0 59229 27000.00000 0 -2635706.141 -24151739.945 -7819440.894 10 0 59229 27900.00000 0 -2767837.777 -24931379.119 -4733872.562 10 0 59229 28800.00000 0 -2934591.907 -25314756.822 -1556538.084 10 0 59229 29700.00000 0 -3080965.729 -25295394.012 1650959.297 10 0 59229 30600.00000 0 -3152285.492 -24880083.991 4826493.155 10 0 59229 31500.00000 0 -3096752.547 -24088564.239 7908609.000 10 0 59229 32400.00000 0 -2867867.312 -22952669.214 10837702.325 10 0 59229 33300.00000 0 -2426629.619 -21515000.644 13557157.699 10 0 59229 34200.00000 0 -1743423.606 -19827171.437 16014427.919 10 0 59229 35100.00000 0 -799508.489 -17947696.588 18162033.816 10 0 59229 36000.00000 0 411946.976 -15939618.419 19958466.889 10 0 59229 36900.00000 0 1885329.783 -13867964.099 21368978.826 10 0 59229 37800.00000 0 3602570.738 -11797139.798 22366244.038 10 0 59229 38700.00000 0 5533657.099 -9788368.135 22930883.588 10 0 59229 39600.00000 0 7637650.199 -7897273.785 23051841.038 10 0 59229 40500.00000 0 9864168.038 -6171715.933 22726603.237 10 0 59229 41400.00000 0 12155273.799 -4649956.404 21961261.430 10 0 59229 42300.00000 0 14447694.432 -3359238.832 20770410.616 10 0 59229 43200.00000 0 16675279.651 -2314837.637 19176887.719 10 0 59229 44100.00000 0 18771601.259 -1519616.595 17211351.831 10 0 59229 45000.00000 0 20672586.159 -964116.064 14911712.643 10 0 59229 45900.00000 0 22319074.187 -627166.025 12322416.075 10 0 59229 46800.00000 0 23659194.158 -477000.244 9493598.967 10 0 59229 47700.00000 0 24650458.032 -472825.610 6480127.738 10 0 59229 48600.00000 0 25261484.257 -566781.157 3340538.564 10 0 59229 49500.00000 0 25473276.203 -706204.220 135899.133 10 0 59229 50400.00000 0 25279999.974 -836107.506 -3071385.601 10 0 59229 51300.00000 0 24689226.912 -901761.196 -6218799.730 10 0 59229 52200.00000 0 23721628.866 -851269.011 -9244949.612 10 0 59229 53100.00000 0 22410137.837 -638027.010 -12090778.190 10 0 59229 54000.00000 0 20798604.715 -222958.481 -14700734.981 10 0 59229 54900.00000 0 18940013.575 423572.276 -17023877.041 10 0 59229 55800.00000 0 16894327.253 1320250.644 -19014877.687 10 0 59229 56700.00000 0 14726055.813 2473772.807 -20634921.996 10 0 59229 57600.00000 0 12501651.295 3878322.832 -21852470.659 10 0 59229 58500.00000 0 10286839.450 5515588.889 -22643876.793 10 0 59229 59400.00000 0 8144001.395 7355318.538 -22993843.703 10 0 59229 60300.00000 0 6129715.550 9356389.884 -22895715.089 10 0 59229 61200.00000 0 4292562.953 11468353.298 -22351592.773 10 0 59229 62100.00000 0 2671287.210 13633378.505 -21372280.714 10 0 59229 63000.00000 0 1293384.826 15788524.835 -19977057.512 10 0 59229 63900.00000 0 174183.140 17868238.854 -18193283.129 10 0 59229 64800.00000 0 -683557.999 19806974.426 -16055848.688 10 0 59229 65700.00000 0 -1289506.848 21541825.377 -13606481.218 10 0 59229 66600.00000 0 -1665091.432 23015060.714 -10892917.978 10 0 59229 67500.00000 0 -1842333.244 24176456.897 -7967967.335 10 0 59229 68400.00000 0 -1862234.678 24985330.470 -4888475.164 10 0 59229 69300.00000 0 -1772790.309 25412187.222 -1714217.490 10 0 59229 70200.00000 0 -1626707.533 25439920.358 1493258.856 10 0 59229 71100.00000 0 -1478933.791 25064509.151 4671825.041 10 0 59229 72000.00000 0 -1384095.134 24295190.421 7759965.618 10 0 59229 72900.00000 0 -1393954.101 23154097.104 10697957.930 10 0 59229 73800.00000 0 -1554993.620 21675380.065 13429013.601 10 0 59229 74700.00000 0 -1906227.921 19903850.514 15900361.099 10 0 59229 75600.00000 0 -2477331.806 17893199.717 18064249.863 10 0 59229 76500.00000 0 -3287166.229 15703869.738 19878858.110 10 0 59229 77400.00000 0 -4342761.743 13400662.868 21309088.236 10 0 59229 78300.00000 0 -5638802.598 11050187.688 22327235.893 10 0 59229 79200.00000 0 -7157633.873 8718246.106 22913520.948 10 0 59229 80100.00000 0 -8869792.729 6467267.985 23056470.782 10 0 59229 81000.00000 0 -10735043.590 4353898.003 22753148.817 10 0 59229 81900.00000 0 -12703876.529 2426833.240 22009223.519 10 0 59229 82800.00000 0 -14719409.014 725000.151 20838875.712 10 0 59229 83700.00000 0 -16719614.427 -723854.114 19264544.616 10 0 59229 84600.00000 0 -18639786.923 -1904097.652 17316515.743 10 0 59229 85500.00000 0 -20415141.666 -2812637.696 15032356.639 10 0 59230 0.00000 0 -21983443.205 -3458814.174 12456209.379 10 0 59230 900.00000 0 -23287552.421 -3863766.480 9637951.194 10 0 59230 1800.00000 0 -24277785.658 -4059299.409 6632238.884 10 0 59230 2700.00000 0 -24913984.820 -4086294.742 3497453.199 10 0 59230 3600.00000 0 -25167211.360 -3992735.758 294564.090 10 0 59230 4500.00000 0 -25020989.641 -3831427.740 -2914061.298 10 0 59230 5400.00000 0 -24472045.711 -3657511.899 -6065883.900 10 0 59230 6300.00000 0 -23530508.081 -3525879.229 -9099426.198 10 0 59230 7200.00000 0 -22219560.315 -3488595.682 -11955488.076 10 0 59230 8100.00000 0 -20574558.861 -3592450.019 -14578319.583 10 0 59230 9000.00000 0 -18641652.583 -3876730.601 -16916725.876 10 0 59230 9900.00000 0 -16475962.172 -4371327.606 -18925081.006 10 0 59230 10800.00000 0 -14139396.491 -5095243.117 -20564229.469 10 0 59230 11700.00000 0 -11698198.458 -6055573.797 -21802256.968 10 0 59230 12600.00000 0 -9220324.573 -7247010.342 -22615114.805 10 0 59230 13500.00000 0 -6772768.924 -8651875.516 -22987085.761 10 0 59230 14400.00000 0 -4418944.433 -10240699.424 -22911082.752 10 0 59230 15300.00000 0 -2216231.255 -11973307.508 -22388775.182 10 0 59230 16200.00000 0 -213794.542 -13800375.013 -21430541.522 10 0 59230 17100.00000 0 1549238.184 -15665381.911 -20055250.220 10 0 59230 18000.00000 0 3045165.366 -17506885.398 -18289874.407 10 0 59230 18900.00000 0 4258609.599 -19261013.966 -16168949.191 10 0 59230 19800.00000 0 5186890.752 -20864078.000 -13733883.201 10 0 59230 20700.00000 0 5839861.220 -22255187.201 -11032138.942 10 0 59230 21600.00000 0 6239213.349 -23378765.318 -8116298.795 10 0 59230 22500.00000 0 6417290.985 -24186857.293 -5043035.567 10 0 59230 23400.00000 0 6415457.722 -24641132.977 -1872008.222 10 0 59230 24300.00000 0 6282092.690 -24714504.596 1335295.460 10 0 59230 25200.00000 0 6070299.860 -24392291.526 4516746.802 10 0 59230 26100.00000 0 5835428.325 -23672884.955 7610771.856 10 0 59230 27000.00000 0 5632508.380 -22567885.890 10557532.134 10 0 59230 27900.00000 0 5513711.227 -21101711.720 13300068.475 10 0 59230 28800.00000 0 5525938.638 -19310688.414 15785386.990 10 0 59230 29700.00000 0 5708643.170 -17241666.364 17965467.470 10 0 59230 30600.00000 0 6091969.680 -14950217.081 19798176.330 10 0 59230 31500.00000 0 6695295.504 -12498484.905 21248067.861 10 0 59230 32400.00000 0 7526230.217 -9952781.514 22287059.815 10 0 59230 33300.00000 0 8580117.131 -7381021.301 22894971.402 10 0 59230 34200.00000 0 9840058.212 -4850102.011 23059914.037 10 0 59230 35100.00000 0 11277462.849 -2423337.199 22778527.623 10 0 59230 36000.00000 0 12853099.578 -158045.020 22056057.476 10 0 59230 36900.00000 0 14518609.212 1896608.105 20906269.622 10 0 59230 37800.00000 0 16218418.751 3701420.587 19351204.717 10 0 59230 38700.00000 0 17891978.658 5228550.789 17420773.620 10 0 59230 39600.00000 0 19476232.080 6462436.044 15152200.433 10 0 59230 40500.00000 0 20908214.353 7400196.906 12589321.745 10 0 59230 41400.00000 0 22127674.782 8051509.024 9781753.651 10 0 59230 42300.00000 0 23079610.770 8437947.091 6783941.183 10 0 59230 43200.00000 0 23716607.159 8591827.684 3654107.400 10 0 59230 44100.00000 0 24000880.925 8554599.171 453122.009 10 0 59230 45000.00000 0 23905943.145 8374846.458 -2756688.328 10 0 59230 45900.00000 0 23417805.909 8105995.320 -5912764.173 10 0 59230 46800.00000 0 22535680.905 7803814.436 -8953546.922 10 0 59230 47700.00000 0 21272138.053 7523822.399 -11819696.112 10 0 59230 48600.00000 0 19652715.761 7318711.506 -14455264.870 10 0 59230 49500.00000 0 17714997.959 7235899.642 -16808808.784 10 0 59230 50400.00000 0 15507196.242 7315316.193 -18834404.742 10 0 59230 51300.00000 0 13086296.718 7587517.770 -20492558.531 10 0 59230 52200.00000 0 10515849.862 8072215.226 -21750982.504 10 0 59230 53100.00000 0 7863496.946 8777275.451 -22585227.576 10 0 59230 54000.00000 0 5198337.545 9698240.868 -22979157.207 10 0 59230 54900.00000 0 2588249.048 10818387.124 -22925254.478 10 0 59230 55800.00000 0 97270.775 12109316.236 -22424757.011 10 0 59230 56700.00000 0 -2216838.043 13532059.610 -21487618.096 10 0 59230 57600.00000 0 -4304765.075 15038643.628 -20132295.927 10 0 59230 58500.00000 0 -6127447.145 16574050.960 -18385376.303 10 0 59230 59400.00000 0 -7657434.533 18078494.212 -16281037.386 10 0 59230 60300.00000 0 -8879762.704 19489905.591 -13860368.084 10 0 59230 61200.00000 0 -9792297.673 20746537.434 -11170554.450 10 0 59230 62100.00000 0 -10405543.609 21789564.189 -8263950.853 10 0 59230 63000.00000 0 -10741923.744 22565576.723 -5197054.711 10 0 59230 63900.00000 0 -10834567.600 23028864.736 -2029405.371 10 0 59230 64800.00000 0 -10725657.996 23143392.281 1177571.188 10 0 59230 65700.00000 0 -10464409.343 22884384.557 4361749.347 10 0 59230 66600.00000 0 -10104763.668 22239460.550 7461499.653 10 0 59230 67500.00000 0 -9702902.076 21209265.204 10416870.830 10 0 59230 68400.00000 0 -9314676.535 19807575.542 13170735.981 10 0 59230 69300.00000 0 -8993069.628 18060876.924 15669881.847 10 0 59230 70200.00000 0 -8785788.293 16007427.269 17866021.464 10 0 59230 71100.00000 0 -8733091.733 13695847.833 19716712.168 10 0 59230 72000.00000 0 -8865943.665 11183298.323 21186162.673 10 0 59230 72900.00000 0 -9204565.737 8533310.745 22245915.096 10 0 59230 73800.00000 0 -9757452.385 5813369.997 22875389.935 10 0 59230 74700.00000 0 -10520888.633 3092339.490 23062284.204 10 0 59230 75600.00000 0 -11478991.839 437836.234 22802815.405 10 0 59230 76500.00000 0 -12604277.147 -2086338.026 22101806.336 10 0 59230 77400.00000 0 -13858724.883 -4422604.931 20972608.298 10 0 59230 78300.00000 0 -15195307.586 -6521758.478 19436862.898 10 0 59230 79200.00000 0 -16559915.136 -8344766.546 17524105.263 10 0 59230 80100.00000 0 -17893599.612 -9864150.310 15271214.416 10 0 59230 81000.00000 0 -19135047.593 -11064883.951 12721719.357 10 0 59230 81900.00000 0 -20223177.436 -11944776.489 9924972.314 10 0 59230 82800.00000 0 -21099752.798 -12514318.855 6935203.613 10 0 59230 83700.00000 0 -21711902.161 -12796001.763 3810475.336 10 0 59230 84600.00000 0 -22014437.082 -12823132.287 611553.447 10 0 59230 85500.00000 0 -21971869.631 -12638198.580 -2599279.498 10 0 59231 0.00000 0 -21560041.711 -12290851.799 -5759447.302 10 0 59231 900.00000 0 -20767294.540 -11835591.305 -8807314.079 10 0 59231 1800.00000 0 -19595127.773 -11329251.769 -11683402.562 10 0 59231 2700.00000 0 -18058316.148 -10828401.035 -14331572.402 10 0 59231 3600.00000 0 -16184479.172 -10386759.941 -16700132.828 10 0 59231 4500.00000 0 -14013119.413 -10052756.109 -18742866.419 10 0 59231 5400.00000 0 -11594169.944 -9867316.898 -20419942.646 10 0 59231 6300.00000 0 -8986111.754 -9861996.732 -21698702.369 10 0 59231 7200.00000 0 -6253740.653 -10057519.199 -22554297.348 10 0 59231 8100.00000 0 -3465677.899 -10462796.278 -22970172.309 10 0 59231 9000.00000 0 -691729.348 -11074466.301 -22938380.463 10 0 59231 9900.00000 0 1999795.790 -11876969.789 -22459727.046 10 0 59231 10800.00000 0 4544694.508 -12843159.231 -21543739.055 10 0 59231 11700.00000 0 6885299.188 -13935416.014 -20208462.909 10 0 59231 12600.00000 0 8972625.831 -15107226.248 -18480095.200 10 0 59231 13500.00000 0 10768153.133 -16305147.857 -16392454.978 10 0 59231 14400.00000 0 12245160.122 -17471085.013 -13986309.006 10 0 59231 15300.00000 0 13389568.858 -18544773.276 -11308564.239 10 0 59231 16200.00000 0 14200259.795 -19466370.263 -8411344.196 10 0 59231 17100.00000 0 14688849.532 -20179042.659 -5350967.917 10 0 59231 18000.00000 0 14878943.164 -20631440.863 -2186852.035 10 0 59231 18900.00000 0 14804895.307 -20779957.745 1019642.412 10 0 59231 19800.00000 0 14510134.095 -20590677.332 4206395.967 10 0 59231 20700.00000 0 14045120.317 -20040932.527 7311726.669 10 0 59231 21600.00000 0 13465028.605 -19120407.464 10275573.272 10 0 59231 22500.00000 0 12827248.604 -17831739.124 13040643.709 10 0 59231 23400.00000 0 12188811.024 -16190593.620 15553507.628 10 0 59231 24300.00000 0 11603846.075 -14225214.135 17765613.243 10 0 59231 25200.00000 0 11121179.979 -11975458.997 19634210.393 10 0 59231 26100.00000 0 10782169.296 -9491369.145 21123163.410 10 0 59231 27000.00000 0 10618862.774 -6831323.120 22203639.592 10 0 59231 27900.00000 0 10652566.919 -4059854.279 22854661.153 10 0 59231 28800.00000 0 10892875.004 -1245218.651 23063510.774 10 0 59231 29700.00000 0 11337200.334 1543188.200 22825983.279 10 0 59231 30600.00000 0 11970834.139 4237460.649 22146478.341 10 0 59231 31500.00000 0 12767527.004 6773751.948 21037931.667 10 0 59231 32400.00000 0 13690571.372 9094677.895 19521584.672 10 0 59231 33300.00000 0 14694341.835 11151456.734 17626595.395 10 0 59231 34200.00000 0 15726230.785 12905696.881 15389496.209 10 0 59231 35100.00000 0 16728900.060 14330758.154 12853506.753 10 0 59231 36000.00000 0 17642755.442 15412629.220 10067713.412 10 0 59231 36900.00000 0 18408540.652 16150283.690 7086129.643 10 0 59231 37800.00000 0 18969941.622 16555498.955 3966654.202 10 0 59231 38700.00000 0 19276090.413 16652144.399 769946.825 10 0 59231 39600.00000 0 19283861.575 16474968.159 -2441756.633 10 0 59231 40500.00000 0 18959861.882 16067933.330 -5605865.962 10 0 59231 41400.00000 0 18282026.828 15482174.019 -8660670.326 10 0 59231 42300.00000 0 17240753.912 14773658.432 -11546558.208 10 0 59231 43200.00000 0 15839522.303 14000659.107 -14207198.081 10 0 59231 44100.00000 0 14094970.588 13221139.006 -16590654.874 10 0 59231 45000.00000 0 12036427.722 12490165.930 -18650418.702 10 0 59231 45900.00000 0 9704915.829 11857466.542 -20346324.359 10 0 59231 46800.00000 0 7151666.295 11365225.070 -21645342.652 10 0 59231 47700.00000 0 4436211.508 11046221.045 -22522227.450 10 0 59231 48600.00000 0 1624132.619 10922385.472 -22960005.820 10 0 59231 49500.00000 0 -1215441.879 11003836.592 -22950301.959 10 0 59231 50400.00000 0 -4012481.496 11288435.536 -22493489.307 10 0 59231 51300.00000 0 -6698732.224 11761879.729 -21598668.834 10 0 59231 52200.00000 0 -9210316.361 12398328.808 -20283475.077 10 0 59231 53100.00000 0 -11490145.577 13161535.206 -18573714.922 10 0 59231 54000.00000 0 -13490047.622 14006430.108 -16502847.426 10 0 59231 54900.00000 0 -15172519.470 14881096.446 -14111315.968 10 0 59231 55800.00000 0 -16512035.693 15729044.463 -11445746.865 10 0 59231 56700.00000 0 -17495859.883 16491692.934 -8558030.986 10 0 59231 57600.00000 0 -18124327.915 17110950.856 -5504306.995 10 0 59231 58500.00000 0 -18410593.952 17531790.615 -2343866.637 10 0 59231 59400.00000 0 -18379852.569 17704704.414 861996.304 10 0 59231 60300.00000 0 -18068072.070 17587941.029 4051170.991 10 0 59231 61200.00000 0 -17520294.100 17149429.557 7161925.541 10 0 59231 62100.00000 0 -16788572.391 16368310.133 10134091.436 10 0 59231 63000.00000 0 -15929637.956 15236008.122 12910214.237 10 0 59231 63900.00000 0 -15002388.901 13756807.393 15436649.332 10 0 59231 64800.00000 0 -14065309.734 11947898.894 17664582.946 10 0 59231 65700.00000 0 -13173927.506 9838902.234 19550960.172 10 0 59231 66600.00000 0 -12378410.193 7470879.505 21059303.568 10 0 59231 67500.00000 0 -11721406.597 4894881.023 22160407.999 10 0 59231 68400.00000 0 -11236216.997 2170081.563 22832899.496 10 0 59231 69300.00000 0 -10945370.209 -638417.731 23063648.149 10 0 59231 70200.00000 0 -10859666.150 -3462033.123 22848027.448 10 0 59231 71100.00000 0 -10977724.101 -6231289.066 22190014.839 10 0 59231 72000.00000 0 -11286056.330 -8878450.883 21102130.831 10 0 59231 72900.00000 0 -11759665.212 -11340092.300 19605216.542 10 0 59231 73800.00000 0 -12363140.527 -13559492.847 17728052.290 10 0 59231 74700.00000 0 -13052212.734 -15488766.319 15506822.654 10 0 59231 75600.00000 0 -13775698.800 -17090632.083 12984436.286 10 0 59231 76500.00000 0 -14477760.293 -18339755.017 10209711.667 10 0 59231 77400.00000 0 -15100379.639 -19223597.228 7236442.951 10 0 59231 78300.00000 0 -15585950.479 -19742744.838 4122362.812 10 0 59231 79200.00000 0 -15879872.362 -19910694.881 928021.746 10 0 59231 80100.00000 0 -15933038.940 -19753110.224 -2284394.310 10 0 59231 81000.00000 0 -15704112.614 -19306573.160 -5452284.447 10 0 59231 81900.00000 0 -15161487.076 -18616890.016 -8513866.477 10 0 59231 82800.00000 0 -14284852.134 -17737018.656 -11409398.135 10 0 59231 83700.00000 0 -13066292.028 -16724707.358 -14082360.220 10 0 59231 84600.00000 0 -11510868.356 -15639946.171 -16480576.775 10 0 59231 85500.00000 0 -9636661.035 -14542340.145 -18557248.630 99